Time,TemperatureF,DewpointF,PressureIn,WindDirection,WindDirectionDegrees,WindSpeedMPH,WindSpeedGustMPH,Humidity,HourlyPrecipIn,Conditions,Clouds,dailyrainin,SoftwareType,DateUTC
2013-04-27 00:01:00,42.9,35.2,30.38,ESE,108,0.0,0.0,74,0.00,,,0.00,WeatherCatV1.10B1784,2013-04-27 04:01:00,
2013-04-27 00:06:00,42.5,34.8,30.38,ESE,108,0.0,0.0,74,0.00,,,0.00,WeatherCatV1.10B1784,2013-04-27 04:06:00,
2013-04-27 00:11:00,42.0,35.0,30.38,ESE,108,0.0,0.0,76,0.00,,,0.00,WeatherCatV1.10B1784,2013-04-27 04:11:00,
2013-04-27 00:16:00,42.0,35.0,30.38,ESE,108,0.0,0.0,76,0.00,,,0.00,WeatherCatV1.10B1784,2013-04-27 04:16:00,
2013-04-27 00:21:00,41.9,34.9,30.38,ESE,108,0.0,0.0,76,0.00,,,0.00,WeatherCatV1.10B1784,2013-04-27 04:21:00,
2013-04-27 00:26:00,41.9,34.9,30.39,ESE,108,0.0,0.0,76,0.00,,,0.00,WeatherCatV1.10B1784,2013-04-27 04:26:00,
2013-04-27 00:31:00,41.9,35.2,30.38,ESE,108,0.0,0.0,77,0.00,,,0.00,WeatherCatV1.10B1784,2013-04-27 04:31:00,
2013-04-27 00:36:00,41.7,35.0,30.39,ESE,108,0.0,0.0,77,0.00,,,0.00,WeatherCatV1.10B1784,2013-04-27 04:36:00,
2013-04-27 00:41:00,41.8,35.1,30.38,ESE,108,0.0,0.0,77,0.00,,,0.00,WeatherCatV1.10B1784,2013-04-27 04:41:00,
2013-04-27 00:46:00,41.6,34.9,30.38,ESE,108,0.0,0.0,77,0.00,,,0.00,WeatherCatV1.10B1784,2013-04-27 04:46:00,
2013-04-27 00:51:00,41.3,34.3,30.38,ESE,108,0.0,0.0,76,0.00,,,0.00,WeatherCatV1.10B1784,2013-04-27 04:51:00,
2013-04-27 00:56:00,41.2,34.5,30.38,ESE,108,0.0,0.0,77,0.00,,,0.00,WeatherCatV1.10B1784,2013-04-27 04:56:00,
2013-04-27 01:01:00,40.9,34.3,30.38,ESE,108,0.0,0.0,77,0.00,,,0.00,WeatherCatV1.10B1784,2013-04-27 05:01:00,
2013-04-27 01:06:00,40.8,34.5,30.38,ESE,108,0.0,0.0,78,0.00,,,0.00,WeatherCatV1.10B1784,2013-04-27 05:06:00,
2013-04-27 01:11:00,40.6,34.6,30.38,ESE,108,0.0,0.0,79,0.00,,,0.00,WeatherCatV1.10B1784,2013-04-27 05:11:00,
2013-04-27 01:16:00,40.2,34.5,30.38,ESE,108,0.0,0.0,80,0.00,,,0.00,WeatherCatV1.10B1784,2013-04-27 05:16:00,
2013-04-27 01:21:00,39.9,34.6,30.38,ESE,108,0.0,0.0,81,0.00,,,0.00,WeatherCatV1.10B1784,2013-04-27 05:21:00,
2013-04-27 01:26:00,39.8,34.5,30.38,ESE,108,0.0,0.0,81,0.00,,,0.00,WeatherCatV1.10B1784,2013-04-27 05:26:00,
2013-04-27 01:31:00,40.0,34.6,30.38,ESE,108,0.0,0.0,81,0.00,,,0.00,WeatherCatV1.10B1784,2013-04-27 05:31:00,
2013-04-27 01:36:00,40.1,34.7,30.38,ESE,108,0.0,0.0,81,0.00,,,0.00,WeatherCatV1.10B1784,2013-04-27 05:36:00,
2013-04-27 01:41:00,39.9,34.9,30.38,ESE,108,0.0,0.0,82,0.00,,,0.00,WeatherCatV1.10B1784,2013-04-27 05:41:00,
2013-04-27 01:46:00,40.0,34.6,30.38,ESE,108,0.0,0.0,81,0.00,,,0.00,WeatherCatV1.10B1784,2013-04-27 05:46:00,
2013-04-27 01:51:00,40.0,34.3,30.38,ESE,108,0.0,0.0,80,0.00,,,0.00,WeatherCatV1.10B1784,2013-04-27 05:51:00,
2013-04-27 01:56:00,40.0,34.6,30.38,ESE,108,0.0,0.0,81,0.00,,,0.00,WeatherCatV1.10B1784,2013-04-27 05:56:00,
2013-04-27 02:01:00,39.9,34.6,30.37,ESE,108,0.0,0.0,81,0.00,,,0.00,WeatherCatV1.10B1784,2013-04-27 06:01:00,
2013-04-27 02:06:00,39.6,34.6,30.37,ESE,108,0.0,0.0,82,0.00,,,0.00,WeatherCatV1.10B1784,2013-04-27 06:06:00,
2013-04-27 02:11:00,39.5,34.5,30.37,ESE,108,0.0,0.0,82,0.00,,,0.00,WeatherCatV1.10B1784,2013-04-27 06:11:00,
2013-04-27 02:16:00,39.2,34.2,30.37,ESE,108,0.0,0.0,82,0.00,,,0.00,WeatherCatV1.10B1784,2013-04-27 06:16:00,
2013-04-27 02:21:00,39.2,34.5,30.37,ESE,108,0.0,0.0,83,0.00,,,0.00,WeatherCatV1.10B1784,2013-04-27 06:21:00,
2013-04-27 02:26:00,39.3,34.9,30.37,ESE,108,0.0,0.0,84,0.00,,,0.00,WeatherCatV1.10B1784,2013-04-27 06:26:00,
2013-04-27 02:31:00,39.5,35.1,30.37,ESE,108,0.0,0.0,84,0.00,,,0.00,WeatherCatV1.10B1784,2013-04-27 06:31:00,
2013-04-27 02:36:00,39.2,34.5,30.37,ESE,108,0.0,0.0,83,0.00,,,0.00,WeatherCatV1.10B1784,2013-04-27 06:36:00,
2013-04-27 02:41:00,38.8,34.4,30.38,ESE,108,0.0,0.0,84,0.00,,,0.00,WeatherCatV1.10B1784,2013-04-27 06:41:00,
2013-04-27 02:46:00,38.7,34.3,30.37,ESE,108,0.0,0.0,84,0.00,,,0.00,WeatherCatV1.10B1784,2013-04-27 06:46:00,
2013-04-27 02:51:00,38.7,34.3,30.37,ESE,108,0.0,0.0,84,0.00,,,0.00,WeatherCatV1.10B1784,2013-04-27 06:51:00,
2013-04-27 02:56:00,38.6,34.2,30.37,ESE,108,0.0,0.0,84,0.00,,,0.00,WeatherCatV1.10B1784,2013-04-27 06:56:00,
2013-04-27 03:01:00,38.7,34.6,30.37,ESE,108,0.0,0.0,85,0.00,,,0.00,WeatherCatV1.10B1784,2013-04-27 07:01:00,
2013-04-27 03:06:00,38.8,34.4,30.37,ESE,108,0.0,0.0,84,0.00,,,0.00,WeatherCatV1.10B1784,2013-04-27 07:06:00,
2013-04-27 03:11:00,38.6,34.2,30.37,ESE,108,0.0,0.0,84,0.00,,,0.00,WeatherCatV1.10B1784,2013-04-27 07:11:00,
2013-04-27 03:16:00,38.3,34.2,30.37,ESE,108,0.0,0.0,85,0.00,,,0.00,WeatherCatV1.10B1784,2013-04-27 07:16:00,
2013-04-27 03:21:00,38.1,34.0,30.37,ESE,108,0.0,0.0,85,0.00,,,0.00,WeatherCatV1.10B1784,2013-04-27 07:21:00,
2013-04-27 03:26:00,38.4,34.6,30.37,ESE,108,0.0,0.0,86,0.00,,,0.00,WeatherCatV1.10B1784,2013-04-27 07:26:00,
2013-04-27 03:31:00,38.4,34.3,30.36,ESE,108,0.0,0.0,85,0.00,,,0.00,WeatherCatV1.10B1784,2013-04-27 07:31:00,
2013-04-27 03:36:00,38.1,34.0,30.36,ESE,108,0.0,0.0,85,0.00,,,0.00,WeatherCatV1.10B1784,2013-04-27 07:36:00,
2013-04-27 03:41:00,38.0,33.9,30.36,ESE,108,0.0,0.0,85,0.00,,,0.00,WeatherCatV1.10B1784,2013-04-27 07:41:00,
2013-04-27 03:46:00,38.1,34.3,30.36,ESE,108,0.0,0.0,86,0.00,,,0.00,WeatherCatV1.10B1784,2013-04-27 07:46:00,
2013-04-27 03:51:00,38.0,34.2,30.36,ESE,108,0.0,0.0,86,0.00,,,0.00,WeatherCatV1.10B1784,2013-04-27 07:51:00,
2013-04-27 03:56:00,38.0,34.2,30.36,ESE,108,0.0,0.0,86,0.00,,,0.00,WeatherCatV1.10B1784,2013-04-27 07:56:00,
2013-04-27 04:01:00,38.0,34.2,30.36,ESE,108,0.0,0.0,86,0.00,,,0.00,WeatherCatV1.10B1784,2013-04-27 08:01:00,
2013-04-27 04:06:00,37.9,34.1,30.36,ESE,108,0.0,0.0,86,0.00,,,0.00,WeatherCatV1.10B1784,2013-04-27 08:06:00,
2013-04-27 04:11:00,37.6,33.8,30.36,ESE,108,0.0,0.0,86,0.00,,,0.00,WeatherCatV1.10B1784,2013-04-27 08:11:00,
2013-04-27 04:16:00,37.3,33.8,30.36,ESE,108,0.0,0.0,87,0.00,,,0.00,WeatherCatV1.10B1784,2013-04-27 08:16:00,
2013-04-27 04:21:00,37.1,33.6,30.36,ESE,108,0.0,0.0,87,0.00,,,0.00,WeatherCatV1.10B1784,2013-04-27 08:21:00,
2013-04-27 04:26:00,37.0,32.9,30.36,ESE,108,0.0,0.0,85,0.00,,,0.00,WeatherCatV1.10B1784,2013-04-27 08:26:00,
2013-04-27 04:31:00,37.1,33.3,30.36,ESE,108,0.0,0.0,86,0.00,,,0.00,WeatherCatV1.10B1784,2013-04-27 08:31:00,
2013-04-27 04:36:00,37.1,33.3,30.36,ESE,108,0.0,0.0,86,0.00,,,0.00,WeatherCatV1.10B1784,2013-04-27 08:36:00,
2013-04-27 04:41:00,37.0,33.5,30.36,ESE,108,0.0,0.0,87,0.00,,,0.00,WeatherCatV1.10B1784,2013-04-27 08:41:00,
2013-04-27 04:46:00,37.2,33.7,30.36,ESE,108,0.0,0.0,87,0.00,,,0.00,WeatherCatV1.10B1784,2013-04-27 08:46:00,
2013-04-27 04:51:00,37.1,33.3,30.36,ESE,108,0.0,0.0,86,0.00,,,0.00,WeatherCatV1.10B1784,2013-04-27 08:51:00,
2013-04-27 04:56:00,36.8,33.0,30.36,ESE,108,0.0,0.0,86,0.00,,,0.00,WeatherCatV1.10B1784,2013-04-27 08:56:00,
2013-04-27 05:01:00,36.6,33.1,30.36,ESE,108,0.0,0.0,87,0.00,,,0.00,WeatherCatV1.10B1784,2013-04-27 09:01:00,
2013-04-27 05:06:00,36.8,33.3,30.36,ESE,108,0.0,0.0,87,0.00,,,0.00,WeatherCatV1.10B1784,2013-04-27 09:06:00,
2013-04-27 05:11:00,37.1,33.3,30.36,ESE,108,0.0,0.0,86,0.00,,,0.00,WeatherCatV1.10B1784,2013-04-27 09:11:00,
2013-04-27 05:16:00,37.7,33.3,30.36,ESE,108,0.0,0.0,84,0.00,,,0.00,WeatherCatV1.10B1784,2013-04-27 09:16:00,
2013-04-27 05:21:00,38.0,33.6,30.36,ESE,108,0.0,0.0,84,0.00,,,0.00,WeatherCatV1.10B1784,2013-04-27 09:21:00,
2013-04-27 05:26:00,38.1,33.7,30.36,ESE,108,0.0,0.0,84,0.00,,,0.00,WeatherCatV1.10B1784,2013-04-27 09:26:00,
2013-04-27 05:31:00,37.8,33.4,30.37,ESE,108,0.0,0.0,84,0.00,,,0.00,WeatherCatV1.10B1784,2013-04-27 09:31:00,
2013-04-27 05:36:00,37.5,33.4,30.37,ESE,108,0.0,0.0,85,0.00,,,0.00,WeatherCatV1.10B1784,2013-04-27 09:36:00,
2013-04-27 05:41:00,37.4,33.6,30.37,ESE,108,0.0,0.0,86,0.00,,,0.00,WeatherCatV1.10B1784,2013-04-27 09:41:00,
2013-04-27 05:46:00,37.3,33.8,30.37,ESE,108,0.0,0.0,87,0.00,,,0.00,WeatherCatV1.10B1784,2013-04-27 09:46:00,
2013-04-27 05:51:00,37.1,33.6,30.37,ESE,108,0.0,0.0,87,0.00,,,0.00,WeatherCatV1.10B1784,2013-04-27 09:51:00,
2013-04-27 05:56:00,37.0,33.2,30.37,ESE,108,0.0,0.0,86,0.00,,,0.00,WeatherCatV1.10B1784,2013-04-27 09:56:00,
2013-04-27 06:01:00,36.7,32.9,30.37,ESE,108,0.0,0.0,86,0.00,,,0.00,WeatherCatV1.10B1784,2013-04-27 10:01:00,
2013-04-27 06:06:00,36.6,33.1,30.36,ESE,108,0.0,0.0,87,0.00,,,0.00,WeatherCatV1.10B1784,2013-04-27 10:06:00,
2013-04-27 06:11:00,37.0,33.2,30.37,ESE,108,0.0,0.0,86,0.00,,,0.00,WeatherCatV1.10B1784,2013-04-27 10:11:00,
2013-04-27 06:16:00,37.3,33.5,30.37,ESE,108,0.0,0.0,86,0.00,,,0.00,WeatherCatV1.10B1784,2013-04-27 10:16:00,
2013-04-27 06:21:00,37.4,33.6,30.37,ESE,108,0.0,0.0,86,0.00,,,0.00,WeatherCatV1.10B1784,2013-04-27 10:21:00,
2013-04-27 06:26:00,37.5,33.7,30.37,ESE,108,0.0,0.0,86,0.00,,,0.00,WeatherCatV1.10B1784,2013-04-27 10:26:00,
2013-04-27 06:31:00,37.8,33.7,30.37,ESE,108,0.0,0.0,85,0.00,,,0.00,WeatherCatV1.10B1784,2013-04-27 10:31:00,
2013-04-27 06:36:00,38.0,33.9,30.37,ESE,108,0.0,0.0,85,0.00,,,0.00,WeatherCatV1.10B1784,2013-04-27 10:36:00,
2013-04-27 06:41:00,38.5,34.4,30.37,ESE,108,0.0,0.0,85,0.00,,,0.00,WeatherCatV1.10B1784,2013-04-27 10:41:00,
2013-04-27 06:46:00,39.1,34.7,30.37,ESE,108,0.0,0.0,84,0.00,,,0.00,WeatherCatV1.10B1784,2013-04-27 10:46:00,
2013-04-27 06:51:00,39.6,35.2,30.37,ESE,108,0.0,0.0,84,0.00,,,0.00,WeatherCatV1.10B1784,2013-04-27 10:51:00,
2013-04-27 06:56:00,40.2,35.5,30.38,ESE,108,0.0,0.0,83,0.00,,,0.00,WeatherCatV1.10B1784,2013-04-27 10:56:00,
2013-04-27 07:01:00,40.7,35.6,30.38,ESE,108,0.0,0.0,82,0.00,,,0.00,WeatherCatV1.10B1784,2013-04-27 11:01:00,
2013-04-27 07:06:00,41.2,35.8,30.38,ESE,108,0.0,0.0,81,0.00,,,0.00,WeatherCatV1.10B1784,2013-04-27 11:06:00,
2013-04-27 07:11:00,41.8,35.5,30.38,ESE,108,0.0,0.0,78,0.00,,,0.00,WeatherCatV1.10B1784,2013-04-27 11:11:00,
2013-04-27 07:16:00,42.3,34.6,30.38,ESE,108,0.0,0.0,74,0.00,,,0.00,WeatherCatV1.10B1784,2013-04-27 11:16:00,
2013-04-27 07:21:00,43.1,35.4,30.38,ESE,108,0.0,0.0,74,0.00,,,0.00,WeatherCatV1.10B1784,2013-04-27 11:21:00,
2013-04-27 07:26:00,43.5,35.1,30.38,ESE,108,0.0,0.0,72,0.00,,,0.00,WeatherCatV1.10B1784,2013-04-27 11:26:00,
2013-04-27 07:31:00,44.0,35.2,30.37,ESE,108,0.0,0.0,71,0.00,,,0.00,WeatherCatV1.10B1784,2013-04-27 11:31:00,
2013-04-27 07:36:00,44.8,34.9,30.37,ESE,108,0.0,0.0,68,0.00,,,0.00,WeatherCatV1.10B1784,2013-04-27 11:36:00,
2013-04-27 07:41:00,45.4,35.1,30.38,ESE,108,0.0,0.0,67,0.00,,,0.00,WeatherCatV1.10B1784,2013-04-27 11:41:00,
2013-04-27 07:46:00,45.7,35.0,30.38,ESE,108,0.0,0.0,66,0.00,,,0.00,WeatherCatV1.10B1784,2013-04-27 11:46:00,
2013-04-27 07:51:00,46.2,34.3,30.38,ESE,108,0.0,2.0,63,0.00,,,0.00,WeatherCatV1.10B1784,2013-04-27 11:51:00,
2013-04-27 07:56:00,46.6,35.1,30.38,ESE,108,0.0,0.0,64,0.00,,,0.00,WeatherCatV1.10B1784,2013-04-27 11:56:00,
2013-04-27 08:01:00,47.0,35.1,30.38,ESE,108,0.0,0.0,63,0.00,,,0.00,WeatherCatV1.10B1784,2013-04-27 12:01:00,
2013-04-27 08:06:00,47.3,34.5,30.38,ESE,108,0.0,0.0,61,0.00,,,0.00,WeatherCatV1.10B1784,2013-04-27 12:06:00,
2013-04-27 08:11:00,47.6,34.0,30.38,ESE,108,0.0,0.0,59,0.00,,,0.00,WeatherCatV1.10B1784,2013-04-27 12:11:00,
2013-04-27 08:16:00,47.8,34.6,30.38,ESE,108,0.0,0.0,60,0.00,,,0.00,WeatherCatV1.10B1784,2013-04-27 12:16:00,
2013-04-27 08:21:00,48.2,35.0,30.38,ESE,108,0.0,0.0,60,0.00,,,0.00,WeatherCatV1.10B1784,2013-04-27 12:21:00,
2013-04-27 08:26:00,48.6,34.9,30.38,ESE,108,0.0,1.0,59,0.00,,,0.00,WeatherCatV1.10B1784,2013-04-27 12:26:00,
2013-04-27 08:31:00,49.3,35.6,30.38,ESE,108,0.0,0.0,59,0.00,,,0.00,WeatherCatV1.10B1784,2013-04-27 12:31:00,
2013-04-27 08:36:00,50.2,36.4,30.38,ESE,108,0.0,0.0,59,0.00,,,0.00,WeatherCatV1.10B1784,2013-04-27 12:36:00,
2013-04-27 08:41:00,51.0,36.3,30.38,ESE,108,0.0,2.0,57,0.00,,,0.00,WeatherCatV1.10B1784,2013-04-27 12:41:00,
2013-04-27 08:46:00,51.2,36.5,30.38,ENE,59,0.0,1.0,57,0.00,,,0.00,WeatherCatV1.10B1784,2013-04-27 12:46:00,
2013-04-27 08:51:00,51.8,37.1,30.38,ENE,63,0.0,1.0,57,0.00,,,0.00,WeatherCatV1.10B1784,2013-04-27 12:51:00,
2013-04-27 08:56:00,52.3,37.1,30.38,ENE,63,0.0,0.0,56,0.00,,,0.00,WeatherCatV1.10B1784,2013-04-27 12:56:00,
2013-04-27 09:01:00,52.7,37.4,30.38,ENE,65,0.0,4.0,56,0.00,,,0.00,WeatherCatV1.10B1784,2013-04-27 13:01:00,
2013-04-27 09:06:00,53.0,37.3,30.38,ENE,66,0.0,2.0,55,0.00,,,0.00,WeatherCatV1.10B1784,2013-04-27 13:06:00,
2013-04-27 09:11:00,53.5,37.7,30.38,ENE,66,0.0,2.0,55,0.00,,,0.00,WeatherCatV1.10B1784,2013-04-27 13:11:00,
2013-04-27 09:16:00,54.0,38.7,30.38,ENE,67,2.0,4.0,56,0.00,,,0.00,WeatherCatV1.10B1784,2013-04-27 13:16:00,
2013-04-27 09:21:00,53.4,37.6,30.37,ENE,67,0.0,0.0,55,0.00,,,0.00,WeatherCatV1.10B1784,2013-04-27 13:21:00,
2013-04-27 09:26:00,53.7,37.5,30.37,ENE,67,1.0,2.0,54,0.00,,,0.00,WeatherCatV1.10B1784,2013-04-27 13:26:00,
2013-04-27 09:31:00,54.5,38.7,30.37,ENE,71,3.0,3.0,55,0.00,,,0.00,WeatherCatV1.10B1784,2013-04-27 13:31:00,
2013-04-27 09:36:00,55.2,38.8,30.37,East,80,1.0,4.0,54,0.00,,,0.00,WeatherCatV1.10B1784,2013-04-27 13:36:00,
2013-04-27 09:41:00,55.8,38.4,30.37,East,99,0.0,4.0,52,0.00,,,0.00,WeatherCatV1.10B1784,2013-04-27 13:41:00,
2013-04-27 09:48:00,56.2,38.8,30.37,East,88,0.0,2.0,52,0.00,,,0.00,WeatherCatV1.10B1784,2013-04-27 13:48:00,
2013-04-27 09:53:00,56.3,36.9,30.37,East,88,0.0,0.0,48,0.00,,,0.00,WeatherCatV1.10B1784,2013-04-27 13:53:00,
2013-04-27 09:58:00,56.0,37.6,30.37,East,89,1.0,6.0,50,0.00,,,0.00,WeatherCatV1.10B1784,2013-04-27 13:58:00,
2013-04-27 10:03:00,56.5,37.0,30.37,East,84,6.0,6.0,48,0.00,,,0.00,WeatherCatV1.10B1784,2013-04-27 14:03:00,
2013-04-27 10:08:00,57.0,37.0,30.37,ESE,115,3.0,3.0,47,0.00,,,0.00,WeatherCatV1.10B1784,2013-04-27 14:08:00,
2013-04-27 10:13:00,57.5,36.9,30.37,ENE,57,3.0,3.0,46,0.00,,,0.00,WeatherCatV1.10B1784,2013-04-27 14:13:00,
2013-04-27 10:18:00,56.5,36.0,30.37,SSE,150,3.0,6.0,46,0.00,,,0.00,WeatherCatV1.10B1784,2013-04-27 14:18:00,
2013-04-27 10:23:00,56.8,36.8,30.37,SSE,167,0.0,7.0,47,0.00,,,0.00,WeatherCatV1.10B1784,2013-04-27 14:23:00,
2013-04-27 10:28:00,57.2,37.7,30.37,ESE,104,0.0,3.0,48,0.00,,,0.00,WeatherCatV1.10B1784,2013-04-27 14:28:00,
2013-04-27 10:33:00,56.9,35.8,30.37,NE,49,3.0,5.0,45,0.00,,,0.00,WeatherCatV1.10B1784,2013-04-27 14:33:00,
2013-04-27 10:38:00,56.2,35.7,30.37,ENE,78,3.0,4.0,46,0.00,,,0.00,WeatherCatV1.10B1784,2013-04-27 14:38:00,
2013-04-27 10:43:00,56.4,35.3,30.37,East,93,2.0,3.0,45,0.00,,,0.00,WeatherCatV1.10B1784,2013-04-27 14:43:00,
2013-04-27 10:48:00,56.8,36.2,30.37,East,93,0.0,2.0,46,0.00,,,0.00,WeatherCatV1.10B1784,2013-04-27 14:48:00,
2013-04-27 10:53:00,57.3,36.1,30.37,East,93,1.0,2.0,45,0.00,,,0.00,WeatherCatV1.10B1784,2013-04-27 14:53:00,
2013-04-27 10:58:00,57.2,36.6,30.37,ESE,102,4.0,4.0,46,0.00,,,0.00,WeatherCatV1.10B1784,2013-04-27 14:58:00,
2013-04-27 11:03:00,58.1,37.4,30.37,East,98,0.0,3.0,46,0.00,,,0.00,WeatherCatV1.10B1784,2013-04-27 15:03:00,
2013-04-27 11:08:00,57.5,35.8,30.37,ENE,57,0.0,2.0,44,0.00,,,0.00,WeatherCatV1.10B1784,2013-04-27 15:08:00,
2013-04-27 11:13:00,57.5,36.3,30.37,ENE,61,1.0,2.0,45,0.00,,,0.00,WeatherCatV1.10B1784,2013-04-27 15:13:00,
2013-04-27 11:18:00,58.1,37.4,30.37,SSE,150,0.0,1.0,46,0.00,,,0.00,WeatherCatV1.10B1784,2013-04-27 15:18:00,
2013-04-27 11:23:00,58.9,35.8,30.37,East,88,2.0,4.0,42,0.00,,,0.00,WeatherCatV1.10B1784,2013-04-27 15:23:00,
2013-04-27 11:28:00,59.3,36.2,30.37,SSE,147,1.0,1.0,42,0.00,,,0.00,WeatherCatV1.10B1784,2013-04-27 15:28:00,
2013-04-27 11:33:00,57.9,34.9,30.37,WSW,244,2.0,4.0,42,0.00,,,0.00,WeatherCatV1.10B1784,2013-04-27 15:33:00,
2013-04-27 11:38:00,58.0,36.2,30.36,West,267,0.0,1.0,44,0.00,,,0.00,WeatherCatV1.10B1784,2013-04-27 15:38:00,
2013-04-27 11:43:00,58.9,36.4,30.36,West,267,0.0,1.0,43,0.00,,,0.00,WeatherCatV1.10B1784,2013-04-27 15:43:00,
2013-04-27 11:48:00,59.9,37.3,30.36,ENE,75,3.0,3.0,43,0.00,,,0.00,WeatherCatV1.10B1784,2013-04-27 15:48:00,
2013-04-27 11:53:00,60.0,36.8,30.36,ENE,74,1.0,1.0,42,0.00,,,0.00,WeatherCatV1.10B1784,2013-04-27 15:53:00,
2013-04-27 11:58:00,60.5,37.3,30.36,SE,131,0.0,0.0,42,0.00,,,0.00,WeatherCatV1.10B1784,2013-04-27 15:58:00,
2013-04-27 12:03:00,60.3,35.2,30.36,WSW,251,3.0,8.0,39,0.00,,,0.00,WeatherCatV1.10B1784,2013-04-27 16:03:00,
2013-04-27 12:08:00,58.9,34.6,30.35,WSW,241,1.0,5.0,40,0.00,,,0.00,WeatherCatV1.10B1784,2013-04-27 16:08:00,
2013-04-27 12:13:00,58.9,35.8,30.35,WSW,241,0.0,1.0,42,0.00,,,0.00,WeatherCatV1.10B1784,2013-04-27 16:13:00,
2013-04-27 12:18:00,59.1,36.0,30.35,WSW,242,0.0,2.0,42,0.00,,,0.00,WeatherCatV1.10B1784,2013-04-27 16:18:00,
2013-04-27 12:23:00,59.4,36.3,30.35,NE,40,2.0,5.0,42,0.00,,,0.00,WeatherCatV1.10B1784,2013-04-27 16:23:00,
2013-04-27 12:28:00,59.0,34.7,30.35,NNW,330,0.0,3.0,40,0.00,,,0.00,WeatherCatV1.10B1784,2013-04-27 16:28:00,
2013-04-27 12:33:00,58.7,35.1,30.35,NNW,330,0.0,1.0,41,0.00,,,0.00,WeatherCatV1.10B1784,2013-04-27 16:33:00,
2013-04-27 12:38:00,59.4,35.1,30.34,NNW,330,0.0,1.0,40,0.00,,,0.00,WeatherCatV1.10B1784,2013-04-27 16:38:00,
2013-04-27 12:43:00,59.8,35.4,30.34,WNW,292,2.0,3.0,40,0.00,,,0.00,WeatherCatV1.10B1784,2013-04-27 16:43:00,
2013-04-27 12:48:00,59.6,35.2,30.33,WNW,292,0.0,0.0,40,0.00,,,0.00,WeatherCatV1.10B1784,2013-04-27 16:48:00,
2013-04-27 12:53:00,60.8,37.0,30.33,East,82,3.0,8.0,41,0.00,,,0.00,WeatherCatV1.10B1784,2013-04-27 16:53:00,
2013-04-27 12:58:00,61.1,34.6,30.33,ENE,78,0.0,4.0,37,0.00,,,0.00,WeatherCatV1.10B1784,2013-04-27 16:58:00,
2013-04-27 13:03:00,61.1,37.2,30.33,East,87,0.0,1.0,41,0.00,,,0.00,WeatherCatV1.10B1784,2013-04-27 17:03:00,
2013-04-27 13:08:00,62.0,37.4,30.33,SE,141,6.0,6.0,40,0.00,,,0.00,WeatherCatV1.10B1784,2013-04-27 17:08:00,
2013-04-27 13:13:00,63.1,37.7,30.33,SE,137,0.0,4.0,39,0.00,,,0.00,WeatherCatV1.10B1784,2013-04-27 17:13:00,
2013-04-27 13:18:00,63.7,38.3,30.32,ENE,76,0.0,1.0,39,0.00,,,0.00,WeatherCatV1.10B1784,2013-04-27 17:18:00,
2013-04-27 13:23:00,63.9,36.4,30.32,West,267,0.0,4.0,36,0.00,,,0.00,WeatherCatV1.10B1784,2013-04-27 17:23:00,
2013-04-27 13:28:00,63.4,38.0,30.32,West,267,1.0,2.0,39,0.00,,,0.00,WeatherCatV1.10B1784,2013-04-27 17:28:00,
2013-04-27 13:33:00,63.3,35.9,30.32,SW,227,3.0,5.0,36,0.00,,,0.00,WeatherCatV1.10B1784,2013-04-27 17:33:00,
2013-04-27 13:38:00,64.0,36.5,30.32,SSE,150,0.0,1.0,36,0.00,,,0.00,WeatherCatV1.10B1784,2013-04-27 17:38:00,
2013-04-27 13:43:00,63.9,36.4,30.31,West,277,3.0,3.0,36,0.00,,,0.00,WeatherCatV1.10B1784,2013-04-27 17:43:00,
2013-04-27 13:48:00,62.4,34.4,30.31,NW,308,0.0,0.0,35,0.00,,,0.00,WeatherCatV1.10B1784,2013-04-27 17:48:00,
2013-04-27 13:53:00,62.4,35.8,30.31,NE,34,0.0,3.0,37,0.00,,,0.00,WeatherCatV1.10B1784,2013-04-27 17:53:00,
2013-04-27 13:58:00,62.5,37.8,30.31,NNE,32,0.0,0.0,40,0.00,,,0.00,WeatherCatV1.10B1784,2013-04-27 17:58:00,
2013-04-27 14:03:00,63.6,37.5,30.31,NNE,32,1.0,2.0,38,0.00,,,0.00,WeatherCatV1.10B1784,2013-04-27 18:03:00,
2013-04-27 14:08:00,65.0,35.9,30.31,ENE,57,0.0,2.0,34,0.00,,,0.00,WeatherCatV1.10B1784,2013-04-27 18:08:00,
2013-04-27 14:13:00,64.9,38.0,30.30,SE,134,6.0,7.0,37,0.00,,,0.00,WeatherCatV1.10B1784,2013-04-27 18:13:00,
2013-04-27 14:18:00,65.2,36.1,30.30,SSE,152,1.0,6.0,34,0.00,,,0.00,WeatherCatV1.10B1784,2013-04-27 18:18:00,
2013-04-27 14:23:00,64.6,34.8,30.30,SE,129,1.0,7.0,33,0.00,,,0.00,WeatherCatV1.10B1784,2013-04-27 18:23:00,
2013-04-27 14:28:00,63.8,35.6,30.30,SSE,163,2.0,2.0,35,0.00,,,0.00,WeatherCatV1.10B1784,2013-04-27 18:28:00,
2013-04-27 14:33:00,63.1,36.4,30.30,ESE,104,1.0,4.0,37,0.00,,,0.00,WeatherCatV1.10B1784,2013-04-27 18:33:00,
2013-04-27 14:38:00,63.1,35.0,30.29,ESE,104,0.0,2.0,35,0.00,,,0.00,WeatherCatV1.10B1784,2013-04-27 18:38:00,
2013-04-27 14:43:00,63.6,34.7,30.29,East,82,3.0,4.0,34,0.00,,,0.00,WeatherCatV1.10B1784,2013-04-27 18:43:00,
2013-04-27 14:48:00,63.7,34.8,30.29,East,84,0.0,1.0,34,0.00,,,0.00,WeatherCatV1.10B1784,2013-04-27 18:48:00,
2013-04-27 14:53:00,63.5,35.4,30.29,SSE,167,0.0,6.0,35,0.00,,,0.00,WeatherCatV1.10B1784,2013-04-27 18:53:00,
2013-04-27 14:58:00,63.0,34.2,30.29,SSE,167,0.0,0.0,34,0.00,,,0.00,WeatherCatV1.10B1784,2013-04-27 18:58:00,
2013-04-27 15:03:00,62.5,34.5,30.29,SSE,167,0.0,0.0,35,0.00,,,0.00,WeatherCatV1.10B1784,2013-04-27 19:03:00,
2013-04-27 15:08:00,61.8,33.9,30.28,ESE,118,0.0,1.0,35,0.00,,,0.00,WeatherCatV1.10B1784,2013-04-27 19:08:00,
2013-04-27 15:13:00,61.7,34.5,30.28,ESE,118,0.0,0.0,36,0.00,,,0.00,WeatherCatV1.10B1784,2013-04-27 19:13:00,
2013-04-27 15:18:00,62.9,36.2,30.28,ESE,118,0.0,0.0,37,0.00,,,0.00,WeatherCatV1.10B1784,2013-04-27 19:18:00,
2013-04-27 15:23:00,63.3,34.5,30.28,ESE,118,0.0,0.0,34,0.00,,,0.00,WeatherCatV1.10B1784,2013-04-27 19:23:00,
2013-04-27 15:28:00,63.1,34.3,30.28,ESE,120,1.0,3.0,34,0.00,,,0.00,WeatherCatV1.10B1784,2013-04-27 19:28:00,
2013-04-27 15:33:00,63.7,34.8,30.27,ESE,120,0.0,0.0,34,0.00,,,0.00,WeatherCatV1.10B1784,2013-04-27 19:33:00,
2013-04-27 15:38:00,64.9,36.6,30.27,SE,136,0.0,3.0,35,0.00,,,0.00,WeatherCatV1.10B1784,2013-04-27 19:38:00,
2013-04-27 15:43:00,65.5,36.4,30.26,ESE,103,3.0,4.0,34,0.00,,,0.00,WeatherCatV1.10B1784,2013-04-27 19:43:00,
2013-04-27 15:48:00,66.0,35.3,30.26,SE,138,5.0,5.0,32,0.00,,,0.00,WeatherCatV1.10B1784,2013-04-27 19:48:00,
2013-04-27 15:53:00,66.2,34.7,30.26,SW,225,3.0,5.0,31,0.00,,,0.00,WeatherCatV1.10B1784,2013-04-27 19:53:00,
2013-04-27 15:58:00,65.0,35.2,30.26,WSW,238,0.0,0.0,33,0.00,,,0.00,WeatherCatV1.10B1784,2013-04-27 19:58:00,
2013-04-27 16:03:00,65.4,34.8,30.26,West,273,2.0,5.0,32,0.00,,,0.00,WeatherCatV1.10B1784,2013-04-27 20:03:00,
2013-04-27 16:08:00,64.3,34.6,30.26,WSW,239,4.0,7.0,33,0.00,,,0.00,WeatherCatV1.10B1784,2013-04-27 20:08:00,
2013-04-27 16:13:00,64.0,35.1,30.26,SSE,165,1.0,10.0,34,0.00,,,0.00,WeatherCatV1.10B1784,2013-04-27 20:13:00,
2013-04-27 16:18:00,63.7,34.8,30.25,SSE,167,1.0,3.0,34,0.00,,,0.00,WeatherCatV1.10B1784,2013-04-27 20:18:00,
2013-04-27 16:23:00,63.0,33.4,30.25,South,176,0.0,0.0,33,0.00,,,0.00,WeatherCatV1.10B1784,2013-04-27 20:23:00,
2013-04-27 16:28:00,62.7,33.2,30.25,South,176,0.0,1.0,33,0.00,,,0.00,WeatherCatV1.10B1784,2013-04-27 20:28:00,
2013-04-27 16:33:00,62.5,34.5,30.25,SSE,168,3.0,5.0,35,0.00,,,0.00,WeatherCatV1.10B1784,2013-04-27 20:33:00,
2013-04-27 16:38:00,62.7,33.9,30.25,SSE,168,0.0,2.0,34,0.00,,,0.00,WeatherCatV1.10B1784,2013-04-27 20:38:00,
2013-04-27 16:43:00,62.9,34.1,30.25,South,190,0.0,5.0,34,0.00,,,0.00,WeatherCatV1.10B1784,2013-04-27 20:43:00,
2013-04-27 16:48:00,63.0,34.9,30.25,South,188,0.0,1.0,35,0.00,,,0.00,WeatherCatV1.10B1784,2013-04-27 20:48:00,
2013-04-27 16:53:00,62.9,35.5,30.25,SSE,159,4.0,6.0,36,0.00,,,0.00,WeatherCatV1.10B1784,2013-04-27 20:53:00,
2013-04-27 16:58:00,62.9,34.8,30.25,South,176,0.0,0.0,35,0.00,,,0.00,WeatherCatV1.10B1784,2013-04-27 20:58:00,
2013-04-27 17:03:00,62.7,34.7,30.25,South,169,4.0,4.0,35,0.00,,,0.00,WeatherCatV1.10B1784,2013-04-27 21:03:00,
2013-04-27 17:08:00,62.8,35.4,30.25,SSE,152,4.0,4.0,36,0.00,,,0.00,WeatherCatV1.10B1784,2013-04-27 21:08:00,
2013-04-27 17:13:00,63.0,36.3,30.25,SSE,165,1.0,5.0,37,0.00,,,0.00,WeatherCatV1.10B1784,2013-04-27 21:13:00,
2013-04-27 17:18:00,63.5,35.4,30.25,SSE,153,4.0,7.0,35,0.00,,,0.00,WeatherCatV1.10B1784,2013-04-27 21:18:00,
2013-04-27 17:23:00,64.2,35.2,30.25,South,186,0.0,2.0,34,0.00,,,0.00,WeatherCatV1.10B1784,2013-04-27 21:23:00,
2013-04-27 17:28:00,64.1,34.4,30.25,SE,131,2.0,3.0,33,0.00,,,0.00,WeatherCatV1.10B1784,2013-04-27 21:28:00,
2013-04-27 17:33:00,63.8,34.9,30.24,East,98,0.0,4.0,34,0.00,,,0.00,WeatherCatV1.10B1784,2013-04-27 21:33:00,
2013-04-27 17:38:00,63.6,34.7,30.24,ESE,123,0.0,6.0,34,0.00,,,0.00,WeatherCatV1.10B1784,2013-04-27 21:38:00,
2013-04-27 17:43:00,63.8,34.1,30.24,SE,134,0.0,3.0,33,0.00,,,0.00,WeatherCatV1.10B1784,2013-04-27 21:43:00,
2013-04-27 17:48:00,64.3,35.3,30.24,SSE,148,2.0,4.0,34,0.00,,,0.00,WeatherCatV1.10B1784,2013-04-27 21:48:00,
2013-04-27 17:53:00,64.7,34.9,30.24,SE,146,1.0,1.0,33,0.00,,,0.00,WeatherCatV1.10B1784,2013-04-27 21:53:00,
2013-04-27 17:58:00,65.1,34.5,30.24,SE,143,0.0,1.0,32,0.00,,,0.00,WeatherCatV1.10B1784,2013-04-27 21:58:00,
2013-04-27 18:03:00,65.4,34.8,30.24,SE,138,0.0,2.0,32,0.00,,,0.00,WeatherCatV1.10B1784,2013-04-27 22:03:00,
2013-04-27 18:08:00,65.1,35.3,30.24,SE,138,0.0,2.0,33,0.00,,,0.00,WeatherCatV1.10B1784,2013-04-27 22:08:00,
2013-04-27 18:13:00,64.8,35.0,30.24,SE,138,0.0,2.0,33,0.00,,,0.00,WeatherCatV1.10B1784,2013-04-27 22:13:00,
2013-04-27 18:18:00,64.6,34.8,30.24,SE,140,0.0,3.0,33,0.00,,,0.00,WeatherCatV1.10B1784,2013-04-27 22:18:00,
2013-04-27 18:23:00,64.4,34.7,30.24,SE,140,0.0,4.0,33,0.00,,,0.00,WeatherCatV1.10B1784,2013-04-27 22:23:00,
2013-04-27 18:28:00,64.4,34.7,30.24,SE,140,0.0,3.0,33,0.00,,,0.00,WeatherCatV1.10B1784,2013-04-27 22:28:00,
2013-04-27 18:33:00,64.2,34.5,30.24,SE,140,0.0,0.0,33,0.00,,,0.00,WeatherCatV1.10B1784,2013-04-27 22:33:00,
2013-04-27 18:38:00,63.8,34.9,30.24,SE,140,0.0,4.0,34,0.00,,,0.00,WeatherCatV1.10B1784,2013-04-27 22:38:00,
2013-04-27 18:43:00,63.3,34.5,30.24,SE,140,0.0,3.0,34,0.00,,,0.00,WeatherCatV1.10B1784,2013-04-27 22:43:00,
2013-04-27 18:48:00,62.7,33.9,30.24,SE,140,0.0,2.0,34,0.00,,,0.00,WeatherCatV1.10B1784,2013-04-27 22:48:00,
2013-04-27 18:53:00,62.3,35.0,30.24,SE,140,0.0,0.0,36,0.00,,,0.00,WeatherCatV1.10B1784,2013-04-27 22:53:00,
2013-04-27 18:58:00,62.0,34.7,30.24,SE,140,0.0,0.0,36,0.00,,,0.00,WeatherCatV1.10B1784,2013-04-27 22:58:00,
2013-04-27 19:03:00,61.5,35.0,30.24,SE,140,0.0,0.0,37,0.00,,,0.00,WeatherCatV1.10B1784,2013-04-27 23:03:00,
2013-04-27 19:08:00,61.0,35.9,30.24,SE,140,0.0,0.0,39,0.00,,,0.00,WeatherCatV1.10B1784,2013-04-27 23:08:00,
2013-04-27 19:13:00,60.5,36.1,30.24,SE,140,0.0,0.0,40,0.00,,,0.00,WeatherCatV1.10B1784,2013-04-27 23:13:00,
2013-04-27 19:18:00,59.7,36.0,30.24,SE,140,0.0,0.0,41,0.00,,,0.00,WeatherCatV1.10B1784,2013-04-27 23:18:00,
2013-04-27 19:24:00,58.9,36.4,30.24,SE,140,0.0,0.0,43,0.00,,,0.00,WeatherCatV1.10B1784,2013-04-27 23:24:00,
2013-04-27 19:29:00,58.2,36.4,30.24,SE,140,0.0,1.0,44,0.00,,,0.00,WeatherCatV1.10B1784,2013-04-27 23:29:00,
2013-04-27 19:34:00,57.8,35.5,30.24,SE,134,0.0,5.0,43,0.00,,,0.00,WeatherCatV1.10B1784,2013-04-27 23:34:00,
2013-04-27 19:39:00,57.7,35.9,30.24,SE,141,7.0,7.0,44,0.00,,,0.00,WeatherCatV1.10B1784,2013-04-27 23:39:00,
2013-04-27 19:44:00,57.6,35.8,30.25,SSE,168,2.0,5.0,44,0.00,,,0.00,WeatherCatV1.10B1784,2013-04-27 23:44:00,
2013-04-27 19:49:00,57.3,36.1,30.25,SSE,161,3.0,5.0,45,0.00,,,0.00,WeatherCatV1.10B1784,2013-04-27 23:49:00,
2013-04-27 19:54:00,57.1,36.0,30.25,SSE,163,4.0,7.0,45,0.00,,,0.00,WeatherCatV1.10B1784,2013-04-27 23:54:00,
2013-04-27 19:59:00,56.7,36.2,30.25,SSE,150,5.0,5.0,46,0.00,,,0.00,WeatherCatV1.10B1784,2013-04-27 23:59:00,
2013-04-27 20:04:00,56.3,35.8,30.25,South,171,5.0,5.0,46,0.00,,,0.00,WeatherCatV1.10B1784,2013-04-28 00:04:00,
2013-04-27 20:09:00,56.1,36.1,30.25,SSE,148,7.0,8.0,47,0.00,,,0.00,WeatherCatV1.10B1784,2013-04-28 00:09:00,
2013-04-27 20:14:00,55.8,35.9,30.25,SSE,156,2.0,5.0,47,0.00,,,0.00,WeatherCatV1.10B1784,2013-04-28 00:14:00,
2013-04-27 20:19:00,55.5,35.6,30.25,SE,142,3.0,9.0,47,0.00,,,0.00,WeatherCatV1.10B1784,2013-04-28 00:19:00,
2013-04-27 20:24:00,55.3,35.9,30.25,SSE,148,1.0,4.0,48,0.00,,,0.00,WeatherCatV1.10B1784,2013-04-28 00:24:00,
2013-04-27 20:29:00,55.0,36.2,30.25,SSE,148,3.0,3.0,49,0.00,,,0.00,WeatherCatV1.10B1784,2013-04-28 00:29:00,
2013-04-27 20:34:00,54.7,35.9,30.25,SSE,164,1.0,6.0,49,0.00,,,0.00,WeatherCatV1.10B1784,2013-04-28 00:34:00,
2013-04-27 20:39:00,54.4,36.2,30.25,SE,138,0.0,2.0,50,0.00,,,0.00,WeatherCatV1.10B1784,2013-04-28 00:39:00,
2013-04-27 20:44:00,54.1,35.9,30.26,SE,143,2.0,5.0,50,0.00,,,0.00,WeatherCatV1.10B1784,2013-04-28 00:44:00,
2013-04-27 20:49:00,53.8,36.1,30.26,SSE,148,0.0,4.0,51,0.00,,,0.00,WeatherCatV1.10B1784,2013-04-28 00:49:00,
2013-04-27 20:54:00,53.5,36.3,30.26,SSE,163,2.0,4.0,52,0.00,,,0.00,WeatherCatV1.10B1784,2013-04-28 00:54:00,
2013-04-27 20:59:00,53.2,36.0,30.26,SSE,151,1.0,6.0,52,0.00,,,0.00,WeatherCatV1.10B1784,2013-04-28 00:59:00,
2013-04-27 21:04:00,52.9,36.2,30.27,SE,143,1.0,6.0,53,0.00,,,0.00,WeatherCatV1.10B1784,2013-04-28 01:04:00,
2013-04-27 21:09:00,52.6,36.0,30.27,SE,142,1.0,5.0,53,0.00,,,0.00,WeatherCatV1.10B1784,2013-04-28 01:09:00,
2013-04-27 21:14:00,52.3,36.2,30.27,SE,136,4.0,8.0,54,0.00,,,0.00,WeatherCatV1.10B1784,2013-04-28 01:14:00,
2013-04-27 21:19:00,52.1,36.4,30.27,SSE,150,4.0,4.0,55,0.00,,,0.00,WeatherCatV1.10B1784,2013-04-28 01:19:00,
2013-04-27 21:24:00,51.8,36.2,30.27,SE,130,3.0,3.0,55,0.00,,,0.00,WeatherCatV1.10B1784,2013-04-28 01:24:00,
2013-04-27 21:29:00,51.6,36.4,30.27,SE,138,0.0,4.0,56,0.00,,,0.00,WeatherCatV1.10B1784,2013-04-28 01:29:00,
2013-04-27 21:34:00,51.3,36.6,30.27,SE,138,0.0,0.0,57,0.00,,,0.00,WeatherCatV1.10B1784,2013-04-28 01:34:00,
2013-04-27 21:39:00,51.0,36.3,30.27,SSE,159,5.0,5.0,57,0.00,,,0.00,WeatherCatV1.10B1784,2013-04-28 01:39:00,
2013-04-27 21:44:00,50.9,36.7,30.28,SSE,149,5.0,8.0,58,0.00,,,0.00,WeatherCatV1.10B1784,2013-04-28 01:44:00,
2013-04-27 21:49:00,50.8,36.6,30.28,SSE,159,6.0,6.0,58,0.00,,,0.00,WeatherCatV1.10B1784,2013-04-28 01:49:00,
2013-04-27 21:54:00,50.6,36.8,30.28,SSE,166,4.0,4.0,59,0.00,,,0.00,WeatherCatV1.10B1784,2013-04-28 01:54:00,
2013-04-27 21:59:00,50.4,36.6,30.28,SSW,201,0.0,1.0,59,0.00,,,0.00,WeatherCatV1.10B1784,2013-04-28 01:59:00,
2013-04-27 22:04:00,50.1,36.8,30.28,WSW,249,0.0,0.0,60,0.00,,,0.00,WeatherCatV1.10B1784,2013-04-28 02:04:00,
2013-04-27 22:09:00,50.0,37.1,30.28,WSW,249,0.0,0.0,61,0.00,,,0.00,WeatherCatV1.10B1784,2013-04-28 02:09:00,
2013-04-27 22:14:00,49.8,36.9,30.28,SW,216,0.0,0.0,61,0.00,,,0.00,WeatherCatV1.10B1784,2013-04-28 02:14:00,
2013-04-27 22:19:00,49.6,36.7,30.28,SW,216,0.0,0.0,61,0.00,,,0.00,WeatherCatV1.10B1784,2013-04-28 02:19:00,
2013-04-27 22:24:00,49.4,36.5,30.28,SW,216,0.0,0.0,61,0.00,,,0.00,WeatherCatV1.10B1784,2013-04-28 02:24:00,
2013-04-27 22:29:00,49.2,36.7,30.28,SW,216,0.0,0.0,62,0.00,,,0.00,WeatherCatV1.10B1784,2013-04-28 02:29:00,
2013-04-27 22:34:00,49.1,36.6,30.28,SW,216,0.0,0.0,62,0.00,,,0.00,WeatherCatV1.10B1784,2013-04-28 02:34:00,
2013-04-27 22:39:00,48.9,36.5,30.28,SW,216,0.0,0.0,62,0.00,,,0.00,WeatherCatV1.10B1784,2013-04-28 02:39:00,
2013-04-27 22:44:00,48.7,36.7,30.29,SW,216,0.0,1.0,63,0.00,,,0.00,WeatherCatV1.10B1784,2013-04-28 02:44:00,
2013-04-27 22:49:00,48.4,36.8,30.29,South,172,0.0,3.0,64,0.00,,,0.00,WeatherCatV1.10B1784,2013-04-28 02:49:00,
2013-04-27 22:54:00,47.6,36.4,30.29,South,172,0.0,1.0,65,0.00,,,0.00,WeatherCatV1.10B1784,2013-04-28 02:54:00,
2013-04-27 22:59:00,46.9,36.1,30.28,South,172,0.0,0.0,66,0.00,,,0.00,WeatherCatV1.10B1784,2013-04-28 02:59:00,
2013-04-27 23:04:00,46.3,36.3,30.29,South,172,0.0,0.0,68,0.00,,,0.00,WeatherCatV1.10B1784,2013-04-28 03:04:00,
2013-04-27 23:09:00,46.1,36.1,30.28,South,172,1.0,1.0,68,0.00,,,0.00,WeatherCatV1.10B1784,2013-04-28 03:09:00,
2013-04-27 23:14:00,46.1,36.5,30.28,South,174,0.0,1.0,69,0.00,,,0.00,WeatherCatV1.10B1784,2013-04-28 03:14:00,
2013-04-27 23:19:00,46.4,36.4,30.28,SSE,165,0.0,5.0,68,0.00,,,0.00,WeatherCatV1.10B1784,2013-04-28 03:19:00,
2013-04-27 23:24:00,46.8,37.2,30.28,South,182,1.0,4.0,69,0.00,,,0.00,WeatherCatV1.10B1784,2013-04-28 03:24:00,
2013-04-27 23:29:00,47.4,37.0,30.28,SSW,197,0.0,4.0,67,0.00,,,0.00,WeatherCatV1.10B1784,2013-04-28 03:29:00,
2013-04-27 23:34:00,47.7,37.3,30.28,South,190,2.0,2.0,67,0.00,,,0.00,WeatherCatV1.10B1784,2013-04-28 03:34:00,
2013-04-27 23:39:00,47.9,37.5,30.29,South,184,2.0,4.0,67,0.00,,,0.00,WeatherCatV1.10B1784,2013-04-28 03:39:00,
2013-04-27 23:44:00,48.1,37.7,30.28,SSW,204,0.0,2.0,67,0.00,,,0.00,WeatherCatV1.10B1784,2013-04-28 03:44:00,
2013-04-27 23:49:00,48.3,37.5,30.28,SSW,213,0.0,2.0,66,0.00,,,0.00,WeatherCatV1.10B1784,2013-04-28 03:49:00,
2013-04-27 23:54:00,48.3,37.5,30.28,SW,221,2.0,5.0,66,0.00,,,0.00,WeatherCatV1.10B1784,2013-04-28 03:54:00,
2013-04-27 23:59:00,48.1,37.3,30.28,SW,236,4.0,6.0,66,0.00,,,0.00,WeatherCatV1.10B1784,2013-04-28 03:59:00,